Flag for U.S.A. Weather past 2 weeks in Midland, Texas, U.S.A.

Now
94 °F

Sunny.


Feels Like: 90 °F
Forecast: 70 / 94 °F
Wind: 9 mph from Southeast

Location: Midland - Midland Airpark

Current Time: Sep 1, 2015 at 4:23:11 PM

Latest Report: Sep 1, 2015 at 3:55 PM


Visibility: 10 mi

Pressure: 30.02 "Hg (27.32 "Hg at 847m altitude)

Humidity: 22%

Dew point: 49 °F

Location of MidlandLocation

Historic Weather in Midland — Graph

°F

Midland temperature yesterday

Maximum temperature yesterday: 94 °F (at 5:15 PM)
Minimum temperature yesterday: 68 °F (at 6:55 AM)
Average temperature yesterday: 82 °F

Past Weeks' High & Low Weather Summary

 TemperatureHumidityPressure
High101 °F (Aug 22, 5:55 PM)86% (Aug 23, 11:55 PM)30.25 "Hg (Aug 23, 11:55 PM)
Low64 °F (Aug 30, 7:35 AM)13% (Aug 28, 6:35 PM)29.75 "Hg (Aug 18, 6:35 PM)
Average82 °F48%30.05 "Hg
* Reported Aug 17 3:15 PM — Sep 1 3:15 PM, Midland, Weather by CustomWeather, © 2015

Note: Actual official high and low records may vary slightly from our data, if they occured in-between our weather recording intervals... More about our weather records

Advertising

Midland weather history for previous 24 hours

 ConditionsComfort  
Time TempWeatherWind HumidityBarometerVisibility
3:15 PM
Tue, Sep 1
93 °FSunny.10 mph22%30.04 "Hg10 mi
2:55 PM92 °FSunny.8 mph24%30.04 "Hg10 mi
2:35 PM93 °FSunny.9 mph24%30.05 "Hg10 mi
2:15 PM92 °FSunny.10 mph25%30.06 "Hg10 mi
1:55 PM92 °FSunny.12 mph25%30.06 "Hg10 mi
1:35 PM92 °FSunny.15 mph25%30.07 "Hg10 mi
1:15 PM92 °FScattered clouds.13 mph27%30.07 "Hg10 mi
12:55 PM91 °FSunny.15 mph27%30.07 "Hg10 mi
12:35 PM90 °FSunny.15 mph29%30.08 "Hg10 mi
12:15 PM89 °FSunny.10 mph31%30.09 "Hg10 mi
11:55 AM88 °FSunny.13 mph33%30.09 "Hg10 mi
11:35 AM87 °FSunny.9 mph39%30.09 "Hg10 mi
11:15 AM86 °FSunny.10 mph41%30.09 "Hg10 mi
10:55 AM84 °FSunny.8 mph44%30.09 "Hg10 mi
10:15 AM81 °FSunny.10 mph51%30.08 "Hg10 mi
9:55 AM78 °FSunny.13 mph55%30.08 "Hg10 mi
9:35 AM76 °FSunny.10 mph59%30.08 "Hg10 mi
9:15 AM75 °FSunny.10 mph64%30.07 "Hg10 mi
8:55 AM73 °FSunny.8 mph67%30.07 "Hg10 mi
8:35 AM72 °FSunny.7 mph68%30.07 "Hg10 mi
8:15 AM72 °FClear.9 mph70%30.07 "Hg10 mi
7:55 AM72 °FClear.7 mph70%30.07 "Hg10 mi
7:35 AM71 °FClear.7 mph72%30.06 "Hg10 mi
7:15 AM71 °FClear.6 mph72%30.06 "Hg10 mi
6:55 AM71 °FClear.7 mph70%30.05 "Hg10 mi
6:35 AM72 °FClear.8 mph68%30.05 "Hg10 mi
6:15 AM72 °FClear.9 mph67%30.04 "Hg10 mi
5:55 AM73 °FClear.8 mph66%30.04 "Hg10 mi
5:35 AM74 °FClear.8 mph65%30.04 "Hg10 mi
5:15 AM74 °FClear.10 mph63%30.03 "Hg10 mi
4:55 AM75 °FClear.10 mph59%30.03 "Hg10 mi
4:35 AM75 °FClear.12 mph54%30.03 "Hg10 mi
4:15 AM75 °FClear.12 mph51%30.02 "Hg10 mi
3:55 AM75 °FClear.14 mph50%30.02 "Hg10 mi
3:35 AM75 °FClear.9 mph51%30.03 "Hg10 mi
3:15 AM75 °FClear.8 mph50%30.03 "Hg10 mi
2:55 AM76 °FClear.8 mph49%30.03 "Hg10 mi
2:35 AM76 °FClear.9 mph48%30.03 "Hg10 mi
2:15 AM77 °FClear.8 mph46%30.03 "Hg10 mi
1:55 AM77 °FClear.9 mph45%30.04 "Hg10 mi
1:35 AM79 °FClear.9 mph43%30.03 "Hg10 mi
1:15 AM79 °FClear.9 mph43%30.04 "Hg10 mi
12:55 AM80 °FClear.9 mph41%30.03 "Hg10 mi
12:15 AM80 °FClear.8 mph40%30.03 "Hg10 mi
11:55 PM
Mon, Aug 31
81 °FClear.8 mph39%30.03 "Hg10 mi
11:15 PM82 °FClear.7 mph36%30.02 "Hg10 mi
10:35 PM84 °FClear.8 mph34%30.02 "Hg10 mi
9:55 PM85 °FClear.7 mph32%30.00 "Hg10 mi
9:35 PM86 °FClear.5 mph32%30.00 "Hg10 mi
9:15 PM87 °FClear.7 mph30%29.99 "Hg10 mi
8:55 PM88 °FSunny.7 mph29%29.98 "Hg10 mi
8:35 PM89 °FSunny.9 mph28%29.97 "Hg10 mi
8:15 PM90 °FSunny.10 mph27%29.96 "Hg10 mi
7:55 PM90 °FSunny.8 mph26%29.96 "Hg10 mi
7:35 PM91 °FSunny.8 mph25%29.96 "Hg10 mi
7:15 PM92 °FSunny.8 mph24%29.96 "Hg10 mi
6:55 PM93 °FSunny.13 mph24%29.96 "Hg10 mi
6:35 PM93 °FSunny.9 mph24%29.96 "Hg10 mi
6:15 PM94 °FSunny.9 mph23%29.96 "Hg10 mi
5:55 PM94 °FSunny.14 mph23%29.97 "Hg10 mi
5:15 PM94 °FSunny.8 mph22%29.98 "Hg10 mi
4:15 PM93 °FSunny.8 mph24%30.00 "Hg10 mi
Weather by CustomWeather, © 2015

See weather overviewHow to use our weather pages